Location: Unspecified
(43.3116°N, 2.0147°W)
Time: 04:39:31
(UTC+02:00)

Okean 3 - Visible Passes

Search period start: 04 July 2022 00:00
Search period end: 14 July 2022 00:00
Orbit: 574 x 598 km, 82.5° (Epoch: 03 July)

Date Brightness Start Highest point End Pass type
(mag) Time Alt. Az. Time Alt. Az. Time Alt. Az.
07 Jul 6.7 05:32:44 10° NE 05:34:41 13° ENE 05:36:37 10° E visible
08 Jul 6.4 05:38:58 10° NNE 05:41:53 18° ENE 05:44:47 10° ESE visible
09 Jul 5.9 05:45:34 10° NNE 05:49:04 25° ENE 05:52:32 10° SE visible
10 Jul 5.2 05:52:19 10° N 05:56:11 36° ENE 06:00:02 10° SE visible
11 Jul 4.4 05:59:11 10° N 06:03:17 52° E 06:07:20 10° SSE visible
13 Jul 6.8 04:38:59 10° ENE 04:39:40 10° ENE 04:40:22 10° ENE visible
